Starlink 33804

operational
NORAD ID: 63511 Int'l Des: 2025-071 Owner: SPXS Country: US Constellation: starlink
LEOCIRCULAR

Starlink 33804について

説明を読み込み中...

リアルタイム位置

3D地球を読み込み中...

次回通過

高度履歴

Altitude vs Time

uPlot chart will show altitude changes over time

軌道要素

1 63511U 25071U 26034.11887659 .00025290 00000-0 86299-3 0 9996
2 63511 53.1587 300.7013 0000828 107.0831 253.0261 15.30203440 47102
Epoch: Feb 3, 2026 • Age: 10 hours

現在のステータス

高度 479.6 km
速度 7.63 km/s
衛星直下点 46.34°N, 102.33°E
打ち上げ日 Apr 7, 2025
運用期間 0.8 years
タイプ internet

技術仕様

分類 Payload
質量 575.00 kg
乾燥質量 530.00 kg
総質量 575.00 kg
長さ 0.30 m
直径 4.10 m
スパン 29.00 m
形状 Box + pan
製造者 SPXS
バスタイプ Starlink V2MO
フェーズステータス In Orbit
所有者/国 SPXS/US

大規模コンステレーション

Loading constellations...